Home > Weather > Medicine Hat > Past weeks

Flag for Canada Weather for the Past 2 Weeks in Medicine Hat, Alberta, Canada

Now
77 °F

Passing clouds.


Feels Like: 78 °F
Forecast: 55 / 86 °F
Wind: 7 mph from Southwest

Location: Medicine Hat

Current Time: May 4, 2016 at 11:44:05 AM

Latest Report: May 4, 2016 at 11:00 AM


Visibility: 30 mi

Pressure: 29.86 "Hg (27.68 "Hg at 661m altitude)

Humidity: 32%

Dew Point: 45 °F

Location of Medicine HatLocation

Historic Weather in Medicine Hat — Graph

°F

Medicine Hat Temperature Yesterday

Maximum temperature yesterday: 82 °F (at 3:00 PM)
Minimum temperature yesterday: 45 °F (at 5:00 AM)
Average temperature yesterday: 65 °F

High & Low Weather Summary for the Past Weeks

 TemperatureHumidityPressure
High82 °F (May 3, 3:00 PM)100% (Apr 24, 6:00 PM)30.37 "Hg (Apr 24, 6:00 PM)
Low32 °F (Apr 25, 3:00 AM)14% (Apr 20, 3:00 PM)29.69 "Hg (Apr 22, 8:00 PM)
Average51 °F64%30.04 "Hg
* Reported Apr 19 10:00 AM — May 4 10:00 AM, Medicine Hat, Weather by CustomWeather, © 2016

Note: Actual official high and low records may vary slightly from our data, if they occured in-between our weather recording intervals... More about our weather records

Advertising

Medicine Hat Weather History for the Previous 24 Hours

Scroll right to see more
 ConditionsComfort  
Time TempWeatherWind HumidityBarometerVisibility
10:00 AM
Wed, May 4
73 °FPassing clouds.9 mph33%29.89 "Hg30 mi
9:00 AM68 °FSunny.9 mph43%29.90 "Hg30 mi
8:00 AM61 °FSunny.10 mph55%29.91 "Hg30 mi
7:00 AM54 °FSunny.7 mph67%29.91 "Hg30 mi
6:00 AM50 °FClear.8 mph71%29.92 "Hg9 mi
5:00 AM54 °FClear.10 mph67%29.91 "Hg9 mi
4:00 AM55 °FClear.10 mph59%29.92 "Hg9 mi
3:00 AM55 °FClear.10 mph59%29.93 "Hg9 mi
2:00 AM57 °FClear.10 mph55%29.93 "Hg9 mi
1:00 AM61 °FClear.14 mph48%29.92 "Hg9 mi
12:00 AM68 °FClear.10 mph33%29.90 "Hg9 mi
11:00 PM
Tue, May 3
68 °FClear.13 mph35%29.90 "Hg9 mi
10:00 PM66 °FClear.12 mph35%29.91 "Hg9 mi
9:00 PM68 °FSunny.10 mph38%29.92 "Hg30 mi
8:00 PM75 °FSunny.8 mph34%29.92 "Hg30 mi
7:00 PM81 °FSunny.12 mph23%29.93 "Hg30 mi
6:00 PM82 °FSunny.9 mph20%29.95 "Hg30 mi
5:00 PM82 °FPassing clouds.13 mph20%29.97 "Hg30 mi
4:00 PM82 °FPassing clouds.10 mph20%29.98 "Hg30 mi
3:00 PM82 °FPassing clouds.10 mph19%30.00 "Hg30 mi
2:00 PM81 °FPassing clouds.8 mph21%30.01 "Hg30 mi
1:00 PM81 °FPassing clouds.8 mph24%30.02 "Hg30 mi
12:00 PM79 °FPassing clouds.9 mph24%30.03 "Hg30 mi
11:00 AM77 °FPassing clouds.10 mph28%30.04 "Hg30 mi
Weather by CustomWeather, © 2016

See weather overviewHow to use our weather pages